Regional Weather Roundup
Issued by NWS Cleveland, OH

Home | Current Version | Previous Version | Text Only | Print | Product List | Glossary Off
Versions: 1 2 3 4 5 6 7 8 9 10 11 12 13 14 15 16 17 18 19 20 21 22 23 24 25 26 27 28 29 30 31 32 33 34 35 36 37 38 39 40 41 42 43 44 45 46 47 48 49 50

000
ASUS41 KCLE 271310
RWRCLE
OHIO REGIONAL WEATHER ROUNDUP
NATIONAL WEATHER SERVICE CLEVELAND, OH
900 AM EDT THU AUG 27 2015

NOTE: "FAIR" INDICATES FEW OR NO CLOUDS BELOW 12,000 FEET WITH NO
SIGNIFICANT WEATHER AND/OR OBSTRUCTIONS TO VISIBILITY.

OHZ001>008-015>018-024>027-034-035-043-044-271400-
   NORTHWEST OHIO

CITY           SKY/WX    TMP DP  RH WIND       PRES   REMARKS
DEFIANCE       MOSUNNY   60  56  86 N3        30.22R
FINDLAY        SUNNY     64  57  78 N5        30.19R
TOLEDO EXPRESS SUNNY     60  55  83 N3        30.21R
TOLEDO EXEC    SUNNY     63  55  75 N5        30.20S
LIMA           SUNNY     60  57  89 NE5       30.20R
$$

OHZ009>014-019>023-028>033-038-089-271400-
   NORTHEAST OHIO

CITY           SKY/WX    TMP DP  RH WIND       PRES   REMARKS
CLE-HOPKINS    PTSUNNY   61  59  93 W6        30.20R
CLE-LAKEFRONT  PTSUNNY   65  57  75 N12       30.17R
CUY CO. ARPT   PTSUNNY   64  61  88 NW6       30.18R
LORAIN-ELYRIA  CLOUDY    62  59  90 CALM      30.19R
ASHTABULA      CLOUDY    62  60  93 CALM      30.18R
AKRON-CANTON   CLOUDY    62  56  80 NW5       30.18R
WOOSTER        CLOUDY    61  56  83 W3        30.19S
MANSFIELD      PTSUNNY   63  57  81 NW9       30.19R
YOUNGSTOWN     CLOUDY    61  57  87 CALM      30.18R
$$

OHZ042-051>053-060>062-070>072-077>081-271400-
  SOUTHWEST OHIO

CITY           SKY/WX    TMP DP  RH WIND       PRES   REMARKS
CINC-COVINGTON PTSUNNY   65  57  75 CALM      30.18R
CINC-LUNKEN    CLOUDY    63  61  93 CALM      30.19R
HAMILTON       CLOUDY    64  59  83 CALM      30.19S
DAYTON         PTSUNNY   63  59  87 NE3       30.20R
WRIGHT-PAT AFB PTSUNNY   63  59  87 N5        30.18S
DAYTON GENERAL PTSUNNY   64  57  78 CALM      30.18S
WILMINGTON     SUNNY     65  56  72 CALM      30.18S
$$

OHZ036-037-039>041-045>050-054>059-063>069-073>076-082>088-271400-
  CENTRAL AND SOUTHEAST OHIO

CITY           SKY/WX    TMP DP  RH WIND       PRES   REMARKS
COLUMBUS       PTSUNNY   64  57  78 N3        30.18S
OSU AIRPORT    CLOUDY    65  58  78 N6        30.18S
BOLTON FIELD   CLOUDY    64  57  77 CALM      30.19S
RICKENBACK AFB CLOUDY    61  58  88 CALM      30.18S
NEWARK         CLOUDY    64  57  78 CALM      30.18S
MARION         CLOUDY    63  57  81 N5        30.19S
LANCASTER      CLOUDY    63  57  81 CALM      30.19S
ZANESVILLE     MOSUNNY   59  56  89 CALM      30.19R
NEW PHILLY     SUNNY     63  57  81 CALM      30.19S
$$



USA.gov is the U.S. government's official web portal to all federal, state and local government web resources and services.